Dewpoint
73 70 70 71 69 68 68 70 72 70 76 73 74 74 72 77 75 70 69 72 71 65
73 73 71 74 71 70 73 70 71 73 74 72 71 74 75 75 72 75 77 73 71 70
72 73 73 73 73 73 71 73 74 73 73 73 72 73 75 72 73 75 70 68 70 70
71 71 73 72 73 73 73 74 74 75 75 73 72 74 76 75 74 74 73 72 73 73
71 71 70 72 72 73 73 73 74 74 74 74 73 74 74 72 72 73 72 71 74 72
74 72 72 72 72 73 73 74 73 73 74 74 73 73 74 74 73 73 73 73 72 71
67 67 66 68 69 71 73 74 74 74 74 73 73 73 73 74 73 73 72 73 72 71
67 67 67 67 68 68 68 68 70 72 73 75 73 71 73 73 72 72 72 72 72 72
68 68 68 67 68 68 68 68 68 70 71 73 73 69 68 71 71 73 73 72 73 72
68 68 68 68 68 68 68 68 67 68 68 71 73 69 66 68 71 70 71 72 71 70
67 68 68 68 69 69 68 69 69 68 68 70 71 67 66 66 72 72 73 74 73 72
65 67 67 67 68 69 68 68 68 69 71 72 73 66 64 67 72 71 73 73 73 74
65 66 67 68 69 69 69 68 66 68 70 68 72 67 63 65 71 70 70 73 74 66
64 65 67 68 69 69 69 69 69 68 68 69 71 74 62 61 73 70 68 67 68 69
Lifted_Index
-6 -5 -5 -5 -4 -4 -4 -3 -3 -3 -4 -4 -4 -4 -4 -4 -4 -4 -4 -4 -4 -3
-6 -6 -5 -5 -5 -4 -4 -4 -4 -4 -4 -4 -4 -4 -4 -4 -4 -4 -4 -4 -4 -4
-6 -6 -6 -6 -5 -5 -5 -4 -4 -5 -5 -4 -4 -4 -5 -4 -4 -4 -4 -4 -4 -4
-6 -6 -6 -6 -6 -5 -5 -5 -5 -5 -5 -5 -5 -5 -5 -5 -5 -5 -5 -4 -4 -4
-6 -6 -6 -6 -6 -5 -5 -5 -5 -5 -5 -5 -5 -5 -5 -5 -5 -5 -5 -5 -5 -4
-5 -5 -5 -5 -5 -5 -5 -5 -5 -5 -5 -5 -5 -5 -5 -5 -5 -5 -5 -5 -4 -4
-4 -4 -3 -3 -3 -3 -4 -4 -4 -5 -5 -6 -6 -5 -5 -5 -5 -5 -5 -5 -4 -4
-2 -2 -2 -1 -1 -2 -2 -2 -3 -4 -5 -5 -6 -6 -5 -5 -5 -5 -5 -5 -5 -4
-2 -2 -2 -1 -1 -1 -1 -1 -1 -2 -3 -5 -6 -6 -5 -5 -5 -5 -5 -5 -5 -5
-2 -2 -2 -2 -2 -2 -2 -1 -1 -2 -2 -4 -5 -6 -5 -5 -5 -4 -5 -5 -5 -4
-2 -2 -2 -3 -3 -3 -3 -2 -2 -2 -3 -4 -5 -6 -6 -6 -5 -5 -5 -5 -5 -4
-1 -2 -2 -3 -3 -3 -3 -3 -3 -3 -3 -4 -5 -6 -6 -6 -5 -5 -6 -6 -5 -5
-0 -1 -2 -2 -3 -4 -4 -4 -3 -3 -3 -4 -5 -6 -6 -6 -6 -6 -6 -6 -6 -5
0 -0 -1 -2 -3 -4 -4 -4 -4 -3 -3 -3 -5 -6 -6 -6 -6 -6 -6 -6 -6 -5